SL-8 DEB, 2934

Orbit data source: Space-Track

SL-8 DEB, 2934 is space debris in LEO originally from a launch on Mon, 15 Mar 1965 UTC launched from the Tyuratam Missile And Space Complex (TTMTR). Debris objects in space refer to the collection of defunct objects orbiting the Earth. Examples of debris include non-operational satellites, rocket bodies, and fragments generated from explosions, collisions, or faulty payload assembly.

Loading next visibility...
Identifier
2934, 1965-020EM
Orbit
LEO
Country
Flag of CISCIS
Related business
Manufacturer
Unknown
Mission
Spacecraft
Bus & Motor
Unknown
Mass
Unknown
Launch date (UTC)
1965-03-15 (61 years ago)
Launch vehicle
Unknown
Launch site
Tyuratam Missile And Space Complex (TTMTR)
Object type
Payload
Rocket body
Debris
Shape & HBR
Unknown shape, 0.2 m
Radar Cross Section
Small (<0.1 m²)

Expand to show TLE details & history
Last TLE update: 1 day ago

TLE from 1 day ago
0 SL-8 DEB
1 02934U 65020EM  25305.63220062 -.00000051  00000-0  22938-3 0  9991
2 02934  55.5962  70.2761 0349871 287.2408  88.7326 12.50893144673623
Epoch: 2025-11-01T15:10Z
TLE epoch observation values (Epoch: 2025-11-01T15:10:22.133Z)
Latitude
16.39165°
Longitude
173.08788°
Altitude
1,464.674 km
Speed
7.131 km/s
True Right ascension
05h 27m 21s
True Declination
16° 18' 26"
Sunlit
Object was in full shadow at epoch
Visualization orbit readout
Latitude
Unknown
Longitude
Unknown
Altitude
Unknown
Speed
Unknown
Apparent Right ascension
Unknown
Apparent Declination
Unknown
Sunlit
N/A
Visualization observer readout
Local Sidereal Time
10:38:41
Azimuth
Unknown
Elevation
Unknown
Doppler factor
Unknown
Orbital elements
Apogee altitude
1,734.904 km
Perigee altitude
1,186.391 km
Semi-major axis
7,838.784 km
Eccentricity
0.03499
Inclination
55.5962°
RAAN
70.2761°
Arg. of periapsis
287.2408°
True anomaly
92.74145°
Mean anomaly
88.7326°
Eccentric anomaly
90.73705°
Mean motion
3.1273 °/min
Orbital period
115.12 mins
BSTAR
0.00022938
Loading maneuver chart data...
Computing Atmospheric mass density...
Loading historical data...
Loading historical data...
Loading historical data...
Loading historical data...
Loading historical data...
Loading historical data...
Loading historical data...

Documentation

Showing up to 5 results
|